STARLINK-32711 (62435 NORAD) Tracking and Keplerian Element Data

This shows tracking and keplerian element data for the satellite.

Feedback or suggestion? Click here.




ElementValue
Catalog62435
NameSTARLINK-32711
Epoch Orbit598
Epoch Day34.83335648
Epoch Year2025
RAAN36.408
Inclination53.16
Eccentricity0.0001666
Argument of Perigee93.195
Mean Anonmoly232.9998
Mean Motion15.39630934
Decay Rate-0.0002004
L11 62435U 24251D 25034.83335648 -.00020040 00000+0 -49213-3 0 9997
L22 62435 53.1600 36.4080 0001666 93.1950 232.9998 15.39630934 5981



Live tracking and technical data element details for STARLINK-32711 (NORAD 62435). STARLINK-32711 can be tracked NOW for your location showing map with azimuth and elevation plus other details from your city location.







IsCatalogInMostPopularTable: catalog: 62435, numindb: 21
Update: records affected: 1



GetName: 62435 STARLINK-32711

Hit Count: updated at: Sun, 18 May 2025 23:45:35 GMT